Home   Weather   Surrey   Past weeks
Flag for Canada

Past Weather in Surrey, British Columbia, Canada — Yesterday and Last 2 Weeks

Now
62 °F

Mild.


Feels Like: 62 °F
Forecast: 72 / 55 °F
Wind: 2 mph from Southeast

Location: P. Meadows Coastal Station

Current Time: Jun 17, 2019 at 12:19:14 am

Latest Report: Jun 16, 2019 at 11:00 pm


Visibility: N/A

Pressure: 30.00 "Hg

Humidity: 74%

Dew Point: 54 °F

Location of SurreyLocation

Past Weather in Surrey — Graph

°F

Surrey Temperature Yesterday

Maximum temperature yesterday: 75 °F (at 2:00 pm)
Minimum temperature yesterday: 54 °F (at 5:00 am)
Average temperature yesterday: 65 °F

High & Low Weather Summary for the Past Weeks

 TemperatureHumidityPressure
High89 °F (Jun 12, 6:00 pm)100% (Jun 9, 4:00 am)30.42 "Hg (Jun 9, 4:00 am)
Low46 °F (Jun 9, 4:00 am)31% (Jun 11, 6:00 pm)29.78 "Hg (Jun 12, 9:00 pm)
Average62 °F64%30.08 "Hg
* Reported Jun 1 11:00 pm — Jun 16 11:00 pm, Surrey. Weather by CustomWeather, © 2019

Note: Actual official high and low records may vary slightly from our data, if they occured in-between our weather recording intervals... More about our weather records

Advertising

Surrey Weather History for the Previous 24 Hours

Scroll right to see more
 ConditionsComfort  
Time TempWeatherWind HumidityBarometerVisibility
11:00 pm
Sun, Jun 16
62 °FMild.2 mph74%30.00 "HgN/A
10:00 pm67 °FMild.1 mph63%30.00 "HgN/A
9:00 pm69 °FMild.1 mph56%29.98 "HgN/A
8:00 pm72 °FMild.3 mph48%29.98 "HgN/A
7:00 pm71 °FMild.3 mph52%29.97 "HgN/A
6:00 pm73 °FMild.5 mph49%29.98 "HgN/A
5:00 pm73 °FMild.5 mph46%29.98 "HgN/A
4:00 pm73 °FMild.6 mph47%30.00 "HgN/A
3:00 pm74 °FMild.6 mph49%30.00 "HgN/A
2:00 pm75 °FMild.5 mph49%30.00 "HgN/A
1:00 pm74 °FMild.3 mph50%30.01 "HgN/A
12:00 pm72 °FMild.2 mph52%30.03 "HgN/A
11:00 am69 °FMild.2 mph56%30.04 "HgN/A
10:00 am65 °FMild.2 mph62%30.04 "HgN/A
9:00 am61 °FCool.2 mph68%30.05 "HgN/A
8:00 am60 °FCool.1 mph74%30.06 "HgN/A
7:00 am56 °FCool.2 mph79%30.06 "HgN/A
6:00 am55 °FCool.1 mph83%30.05 "HgN/A
5:00 am54 °FCool.1 mph84%30.04 "HgN/A
4:00 am55 °FCool.2 mph84%30.03 "HgN/A
3:00 am55 °FCool.1 mph88%30.02 "HgN/A
2:00 am57 °FCool.No wind83%30.02 "HgN/A
1:00 am58 °FCool.1 mph78%30.02 "HgN/A
12:00 am60 °FCool.3 mph72%30.02 "HgN/A
Weather by CustomWeather, © 2019

See weather overview